[[{"header":{"parameterUnit":"m.s-1","parameterCategory":1,"la1":30.2991,"la2":30.254,"lo1":-89.0895,"lo2":-89.0444,"dy":0.0017,"dx":0.0017,"nx":28,"ny":28,"refTime":"2025-07-24T21:00:00:Z","depth":0,"parameterNumber":2,"parameterNumberName":"U-component_of_WINDS"},"data":[0,0,0,0,0,0,0,0,0,0,0,0,0,0,0,0,0,0,0,0,0,0,0,0,0,0,0,0,0,0,0,0,0,0,0,0,0,0,0,0,0,0,0,0,0,0,0,0,0,0,0,0,0,0,0,0,0,0,-2.4077,-2.4077,0,-2.4133,-2.4134,-2.4134,-2.412,-2.4119,-2.4118,-2.4117,-2.4179,-2.4182,-2.4184,0,0,0,0,0,0,0,0,0,0,0,0,0,-2.3961,-2.3963,-2.4076,-2.4077,-2.4078,-2.4133,-2.4134,-2.4135,-2.412,-2.4119,-2.4117,-2.4116,-2.4178,-2.4181,-2.4184,0,0,0,0,0,0,0,0,0,0,0,0,0,-2.4014,-2.3964,-2.4076,-2.4077,-2.4078,-2.4133,-2.4134,-2.4135,-2.4121,-2.4119,-2.4117,-2.4116,-2.4177,-2.4181,-2.4185,-2.4244,0,0,-2.4197,-2.4199,0,0,0,0,0,0,0,0,-2.4011,-2.4018,-2.4076,-2.4077,-2.4078,-2.4118,-2.4116,-2.4172,-2.4121,-2.4104,-2.4117,-2.4115,-2.416,-2.4166,-2.418,-2.4247,-2.4249,-2.4198,-2.42,-2.4202,-2.4203,0,0,0,0,0,0,0,-2.4007,-2.4016,-2.4099,-2.4077,-2.4078,-2.4077,-2.4082,-2.4126,-2.4141,-2.4106,-2.4105,-2.4112,-2.416,-2.4176,-2.4181,-2.425,-2.4198,-2.4201,-2.4204,-2.4205,-2.437,-2.4372,0,0,0,0,0,0,-2.4002,-2.4013,-2.4097,-2.4101,-2.4039,-2.408,-2.4086,-2.4107,-2.4141,-2.4144,-2.4113,-2.4111,-2.417,-2.4177,-2.4183,-2.4255,-2.4202,-2.4206,-2.4208,-2.4369,-2.4371,-2.4373,0,0,0,0,0,0,-2.4,-2.401,-2.4095,-2.4056,-2.4067,-2.4084,-2.4107,-2.4109,-2.4124,-2.4146,-2.4149,-2.4126,-2.4169,-2.4178,-2.4229,-2.4257,-2.4207,-2.4211,-2.4366,-2.4369,-2.4372,-2.4399,0,0,0,0,0,0,-2.3996,-2.4009,-2.403,-2.4057,-2.4069,-2.4138,-2.4109,-2.4111,-2.4131,-2.4129,-2.4159,-2.4163,-2.4168,-2.4223,-2.4233,-2.4262,-2.4214,-2.4364,-2.4368,-2.4371,-2.4396,-2.4403,-2.4409,0,0,0,0,0,-2.3992,-2.4036,-2.4031,-2.4042,-2.4096,-2.4139,-2.4147,-2.4151,-2.4133,-2.4156,-2.417,-2.4162,-2.4253,-2.4228,-2.424,-2.427,-2.4362,-2.4367,-2.4371,-2.4393,-2.4402,-2.4409,0,0,0,0,0,0,-2.4013,-2.404,-2.4034,-2.4088,-2.4111,-2.4137,-2.4165,-2.416,-2.419,-2.4186,-2.4192,-2.4199,-2.4252,-2.4267,-2.4239,-2.433,-2.4305,-2.4312,-2.4318,-2.4327,-2.4333,-2.4328,-2.4218,0,0,0,0,0,-2.4024,-2.4055,-2.4078,-2.4123,-2.4135,-2.4148,-2.4167,-2.4169,-2.4194,-2.4204,-2.4222,-2.4248,-2.4283,-2.4306,-2.4339,-2.4399,-2.4406,-2.4426,-2.4432,-2.4437,-2.4443,-2.4477,-2.4486,-2.4388,-2.4387,-2.4387,0,0,-2.4046,-2.4065,-2.4084,-2.4127,-2.4146,-2.418,-2.4156,-2.4193,-2.422,-2.421,-2.4259,-2.4274,-2.4304,-2.436,-2.4386,-2.4374,-2.4472,-2.4443,-2.4447,-2.445,-2.4483,-2.4492,-2.45,-2.439,-2.439,-2.4389,0,0,-2.4104,-2.4121,-2.4161,-2.418,-2.4208,-2.4217,-2.4227,-2.4254,-2.4263,-2.4312,-2.4306,-2.4339,-2.4398,-2.442,-2.4438,-2.4508,-2.4502,-2.4519,-2.4552,-2.4585,-2.4593,-2.46,-2.4625,-2.4634,-2.4525,-2.4525,-2.4525,0,-2.4129,-2.4179,-2.4182,-2.422,-2.424,-2.4233,-2.4274,-2.4293,-2.4332,-2.4346,-2.4332,-2.4408,-2.4427,-2.4489,-2.4506,-2.4521,-2.4534,-2.4515,-2.4591,-2.4598,-2.4605,-2.4629,-2.4639,-2.4527,-2.4526,-2.4526,-2.4526,0,-2.4208,-2.4243,-2.4272,-2.4308,-2.4332,-2.4371,-2.4383,-2.4407,-2.4407,-2.4418,-2.447,-2.4493,-2.4532,-2.4547,-2.4548,-2.461,-2.4601,-2.4589,-2.4564,-2.4616,-2.4639,-2.4648,-2.4529,-2.4529,-2.4528,-2.4527,0,0,-2.4279,-2.4318,-2.4328,-2.4345,-2.4377,-2.4405,-2.4446,-2.4482,-2.4503,-2.453,-2.4565,-2.4617,-2.4606,-2.4628,-2.4632,-2.4661,-2.4716,-2.4646,-2.4647,-2.4658,-2.4787,-2.4795,-2.4806,-2.4713,-2.4714,-2.4716,-2.4784,0,-2.434,-2.4409,-2.4415,-2.4478,-2.4512,-2.4507,-2.4542,-2.4567,-2.4579,-2.4611,-2.4625,-2.4661,-2.4645,-2.4658,-2.4687,-2.4703,-2.4742,-2.4698,-2.4747,-2.4748,-2.4738,-2.4818,-2.4826,-2.4889,-2.4793,-2.4795,-2.4796,0,-2.442,-2.4449,-2.4515,-2.4543,-2.4558,-2.4589,-2.4624,-2.4654,-2.4683,-2.469,-2.4715,-2.4716,-2.476,-2.4734,-2.4795,-2.4766,-2.4786,-2.4798,-2.4801,-2.4805,-2.4775,-2.4824,-2.491,-2.4919,-2.481,-2.4809,-2.4808,0,-2.4465,-2.4521,-2.4568,-2.4583,-2.4617,-2.464,-2.4656,-2.4682,-2.4705,-2.4736,-2.4751,-2.4788,-2.4808,-2.4837,-2.4848,-2.4828,-2.491,-2.4885,-2.4918,-2.4918,-2.4935,-2.4933,-2.5025,-2.4949,-2.4949,-2.4949,-2.4949,0,-2.4532,-2.4573,-2.4589,-2.4618,-2.4665,-2.4672,-2.4718,-2.4733,-2.4758,-2.4791,-2.479,-2.4822,-2.4835,-2.4869,-2.4879,-2.4929,-2.4938,-2.4946,-2.4948,-2.4946,-2.4945,-2.4959,-2.4955,-2.4951,-2.4951,-2.495,-2.495,0,-2.459,-2.4602,-2.4653,-2.4682,-2.469,-2.4723,-2.4749,-2.4778,-2.479,-2.4833,-2.4843,-2.4863,-2.4904,-2.4919,-2.4968,-2.4975,-2.5033,-2.5032,-2.5023,-2.5023,-2.5056,-2.5053,-2.5159,-2.5174,-2.5089,-2.509,-2.509,0,-2.4631,-2.4663,-2.4695,-2.4716,-2.4733,-2.4768,-2.479,-2.48,-2.4824,-2.486,-2.4886,-2.4926,-2.4958,-2.5024,-2.5045,-2.5083,-2.5083,-2.5118,-2.5088,-2.5086,-2.5083,-2.5081,-2.5085,-2.5122,-2.5123,-2.5124,-2.5125,0,-2.4704,-2.4709,-2.4741,-2.4776,-2.4803,-2.4831,-2.4858,-2.4877,-2.4891,-2.4919,-2.4959,-2.4985,-2.5036,-2.5076,-2.5116,-2.5135,-2.5133,-2.5134,-2.5144,-2.5141,-2.5135,-2.5139,-2.5037,-2.5131,-2.513,-2.513,-2.513,-2.5129,-2.4755,-2.4783,-2.481,-2.4846,-2.4868,-2.4894,-2.4923,-2.494,-2.4973,-2.5015,-2.5019,-2.5064,-2.5095,-2.5148,-2.5168,-2.5205,-2.5195,-2.5209,-2.5213,-2.5216,-2.5218,-2.513,-2.5212,-2.5212,-2.5212,-2.5212,-2.5212,0,-2.4828,-2.4845,-2.4878,-2.4917,-2.4946,-2.4941,-2.4972,-2.4997,-2.5035,-2.5063,-2.5096,-2.5144,-2.5184,-2.5208,-2.5249,-2.5273,-2.5274,-2.5284,-2.5282,-2.5286,-2.5224,-2.5212,-2.5283,-2.5283,-2.5283,-2.5283,-2.5283,-2.5283,-2.4868,-2.4916,-2.4924,-2.4984,-2.5002,-2.5044,-2.5062,-2.5087,-2.511,-2.5163,-2.5196,-2.5211,-2.5238,-2.5281,-2.5318,-2.5325,-2.534,-2.5351,-2.5356,-2.5298,-2.529,-2.5283,-2.5271,-2.5354,-2.5354,-2.5415,-2.5416,-2.5416]},{"header":{"parameterUnit":"m.s-1","parameterCategory":1,"la1":30.2991,"la2":30.254,"lo1":-89.0895,"lo2":-89.0444,"dy":0.0017,"dx":0.0017,"nx":28,"ny":28,"refTime":"2025-07-24T21:00:00:Z","depth":0,"parameterNumber":3,"parameterNumberName":"V-component_of_WINDS"},"data":[0,0,0,0,0,0,0,0,0,0,0,0,0,0,0,0,0,0,0,0,0,0,0,0,0,0,0,0,0,0,0,0,0,0,0,0,0,0,0,0,0,0,0,0,0,0,0,0,0,0,0,0,0,0,0,0,0,0,-0.2847,-0.2846,0,-0.2815,-0.2814,-0.2814,-0.2766,-0.2765,-0.2764,-0.2764,-0.2732,-0.2732,-0.2732,0,0,0,0,0,0,0,0,0,0,0,0,0,-0.2867,-0.2867,-0.2847,-0.2846,-0.2846,-0.2815,-0.2814,-0.2814,-0.2766,-0.2765,-0.2764,-0.2763,-0.2732,-0.2732,-0.2732,0,0,0,0,0,0,0,0,0,0,0,0,0,-0.2849,-0.2867,-0.2847,-0.2818,-0.2815,-0.2815,-0.2814,-0.2814,-0.2767,-0.2765,-0.2764,-0.2763,-0.2732,-0.2732,-0.2732,-0.2756,0,0,-0.2731,-0.2731,0,0,0,0,0,0,0,0,-0.285,-0.2848,-0.2823,-0.282,-0.2817,-0.2793,-0.281,-0.2795,-0.2767,-0.2785,-0.2764,-0.2762,-0.2753,-0.2751,-0.2748,-0.2755,-0.2754,-0.2731,-0.2731,-0.2731,-0.2731,0,0,0,0,0,0,0,-0.2851,-0.2849,-0.2834,-0.2823,-0.2819,-0.2807,-0.2803,-0.2807,-0.2777,-0.2783,-0.278,-0.2777,-0.2751,-0.2748,-0.2747,-0.2753,-0.2731,-0.2731,-0.2731,-0.2731,-0.2778,-0.278,0,0,0,0,0,0,-0.2857,-0.2851,-0.2835,-0.2833,-0.2831,-0.2808,-0.2803,-0.2802,-0.2777,-0.2771,-0.2778,-0.2775,-0.2749,-0.2747,-0.2746,-0.2773,-0.2731,-0.2731,-0.2731,-0.2777,-0.2779,-0.278,0,0,0,0,0,0,-0.2857,-0.2856,-0.2836,-0.2841,-0.2837,-0.2809,-0.2808,-0.2802,-0.2799,-0.2772,-0.2767,-0.278,-0.2748,-0.2746,-0.2754,-0.2772,-0.2731,-0.2731,-0.2775,-0.2777,-0.2779,-0.2829,0,0,0,0,0,0,-0.2858,-0.2856,-0.2865,-0.2841,-0.2837,-0.2845,-0.2809,-0.2802,-0.2799,-0.2794,-0.2773,-0.2768,-0.2747,-0.2754,-0.2754,-0.2771,-0.2731,-0.2774,-0.2776,-0.2779,-0.2825,-0.2832,-0.2838,0,0,0,0,0,-0.2859,-0.2881,-0.2866,-0.2864,-0.2848,-0.2846,-0.2844,-0.2819,-0.28,-0.2809,-0.2792,-0.2769,-0.2769,-0.2756,-0.2755,-0.2772,-0.2773,-0.2776,-0.2778,-0.2823,-0.2831,-0.2838,0,0,0,0,0,0,-0.2908,-0.2877,-0.286,-0.2875,-0.2864,-0.2838,-0.2849,-0.2828,-0.2822,-0.2818,-0.2787,-0.2783,-0.2795,-0.2784,-0.2769,-0.2794,-0.2767,-0.277,-0.2801,-0.2809,-0.2815,-0.2818,-0.2731,0,0,0,0,0,-0.292,-0.2921,-0.2894,-0.291,-0.2905,-0.2878,-0.2876,-0.2858,-0.2845,-0.284,-0.2823,-0.2811,-0.2809,-0.2808,-0.2804,-0.2823,-0.2818,-0.2834,-0.284,-0.2845,-0.2849,-0.2858,-0.2865,-0.279,-0.279,-0.279,0,0,-0.2946,-0.293,-0.2932,-0.2919,-0.2908,-0.291,-0.2874,-0.2878,-0.2879,-0.284,-0.2847,-0.2834,-0.2819,-0.2833,-0.2838,-0.2824,-0.2868,-0.2849,-0.2854,-0.2854,-0.2862,-0.2869,-0.2876,-0.2792,-0.2791,-0.2791,0,0,-0.2995,-0.2982,-0.2994,-0.2983,-0.2967,-0.2948,-0.2951,-0.2929,-0.2919,-0.2925,-0.2896,-0.2896,-0.2893,-0.2883,-0.2878,-0.2922,-0.29,-0.2921,-0.2954,-0.2964,-0.297,-0.2975,-0.2991,-0.2998,-0.2924,-0.2924,-0.2924,0,-0.303,-0.3031,-0.3003,-0.3008,-0.3003,-0.2967,-0.2979,-0.297,-0.2953,-0.2951,-0.2935,-0.2929,-0.2917,-0.2928,-0.2938,-0.2935,-0.2938,-0.2924,-0.2971,-0.2976,-0.298,-0.2996,-0.3002,-0.2927,-0.2927,-0.2927,-0.2926,0,-0.3075,-0.3076,-0.3088,-0.3072,-0.3068,-0.3077,-0.305,-0.3049,-0.3031,-0.3014,-0.3021,-0.3004,-0.2996,-0.2997,-0.2979,-0.3005,-0.2997,-0.2977,-0.295,-0.2991,-0.3005,-0.301,-0.2931,-0.293,-0.2929,-0.2929,0,0,-0.3155,-0.3123,-0.3128,-0.312,-0.3099,-0.3099,-0.3106,-0.3098,-0.3098,-0.3087,-0.3093,-0.309,-0.307,-0.3064,-0.3045,-0.3053,-0.3089,-0.3031,-0.303,-0.3043,-0.3118,-0.3135,-0.3142,-0.3074,-0.3075,-0.3076,-0.312,0,-0.3201,-0.3211,-0.3184,-0.3201,-0.3202,-0.3167,-0.3173,-0.316,-0.3145,-0.3143,-0.3126,-0.3125,-0.3099,-0.3095,-0.3101,-0.3084,-0.3104,-0.308,-0.3079,-0.308,-0.3086,-0.3149,-0.3167,-0.3209,-0.3125,-0.3126,-0.3126,0,-0.3255,-0.3247,-0.3264,-0.3241,-0.324,-0.3246,-0.3236,-0.3235,-0.322,-0.3208,-0.3201,-0.3178,-0.3183,-0.3155,-0.3162,-0.3146,-0.3144,-0.3135,-0.3136,-0.3136,-0.3107,-0.3152,-0.3222,-0.3229,-0.3135,-0.3134,-0.3133,0,-0.3314,-0.3306,-0.3315,-0.331,-0.3283,-0.3288,-0.3277,-0.3261,-0.3257,-0.3249,-0.3246,-0.3238,-0.3235,-0.3229,-0.3204,-0.3186,-0.3214,-0.3184,-0.3205,-0.3205,-0.3213,-0.3214,-0.3285,-0.321,-0.321,-0.321,-0.321,0,-0.3368,-0.338,-0.3341,-0.3347,-0.3359,-0.3328,-0.3341,-0.3327,-0.3312,-0.3314,-0.3283,-0.3286,-0.3252,-0.3252,-0.3232,-0.3241,-0.3239,-0.323,-0.3225,-0.3233,-0.3235,-0.3233,-0.323,-0.3211,-0.3211,-0.3211,-0.321,0,-0.3436,-0.3411,-0.3418,-0.3392,-0.3386,-0.3396,-0.3373,-0.3377,-0.3359,-0.3362,-0.3361,-0.3333,-0.333,-0.3304,-0.3296,-0.3283,-0.33,-0.3288,-0.3305,-0.3302,-0.3324,-0.3323,-0.3398,-0.3407,-0.3325,-0.3326,-0.3326,0,-0.3473,-0.3481,-0.3456,-0.3455,-0.3445,-0.3444,-0.3441,-0.341,-0.3408,-0.3391,-0.3397,-0.3392,-0.3386,-0.3383,-0.3362,-0.3355,-0.3344,-0.3371,-0.3343,-0.3352,-0.3346,-0.3346,-0.3347,-0.3378,-0.3379,-0.3379,-0.338,0,-0.3542,-0.3529,-0.3525,-0.3516,-0.3512,-0.3504,-0.3494,-0.3495,-0.3461,-0.346,-0.3457,-0.3452,-0.3443,-0.3438,-0.3428,-0.3416,-0.3393,-0.3389,-0.3393,-0.3403,-0.3413,-0.3409,-0.3323,-0.3388,-0.3387,-0.3386,-0.3386,-0.3386,-0.3596,-0.3602,-0.3585,-0.3581,-0.357,-0.3561,-0.3564,-0.3545,-0.3542,-0.3532,-0.3514,-0.3514,-0.3498,-0.3481,-0.3471,-0.3471,-0.3457,-0.3463,-0.3465,-0.3467,-0.3472,-0.3412,-0.3468,-0.3468,-0.3468,-0.3468,-0.3467,0,-0.3665,-0.3652,-0.3648,-0.3635,-0.3632,-0.3609,-0.3596,-0.3595,-0.3595,-0.3582,-0.3577,-0.3573,-0.3568,-0.3545,-0.3538,-0.3542,-0.3531,-0.3541,-0.3541,-0.3539,-0.3485,-0.3482,-0.355,-0.355,-0.355,-0.355,-0.355,-0.355,-0.37,-0.3709,-0.3693,-0.3696,-0.3682,-0.3681,-0.3676,-0.3668,-0.3657,-0.3654,-0.365,-0.3635,-0.3618,-0.3609,-0.3603,-0.3597,-0.3596,-0.361,-0.36,-0.3551,-0.3543,-0.3535,-0.3533,-0.361,-0.361,-0.3654,-0.3655,-0.3655]}]]